Regional Weather Roundup
Issued by NWS Cleveland, OH

Home | Current Version | Previous Version | Graphics & Text | Print | Product List | Glossary On
Versions: 1 2 3 4 5 6 7 8 9 10 11 12 13 14 15 16 17 18 19 20 21 22 23 24 25 26 27 28 29 30 31 32 33 34 35 36 37 38 39 40 41 42 43 44 45 46 47 48 49 50
000
ASUS41 KCLE 272110
RWRCLE
OHIO REGIONAL WEATHER ROUNDUP
NATIONAL WEATHER SERVICE CLEVELAND, OH
500 PM EDT MON JUL 27 2015

NOTE: "FAIR" INDICATES FEW OR NO CLOUDS BELOW 12,000 FEET WITH NO
SIGNIFICANT WEATHER AND/OR OBSTRUCTIONS TO VISIBILITY.

OHZ001>008-015>018-024>027-034-035-043-044-272200-
   NORTHWEST OHIO

CITY           SKY/WX    TMP DP  RH WIND       PRES   REMARKS
DEFIANCE       MOSUNNY   87  58  37 E8        30.01S
FINDLAY        SUNNY     86  61  42 SE9       29.99F
TOLEDO EXPRESS SUNNY     85  59  41 NE7       30.01S
TOLEDO EXEC    SUNNY     85  58  39 NE8       30.02S
LIMA           MOSUNNY   84  59  42 NE6       30.00F
$$

OHZ009>014-019>023-028>033-038-089-272200-
   NORTHEAST OHIO

CITY           SKY/WX    TMP DP  RH WIND       PRES   REMARKS
CLE-HOPKINS    MOSUNNY   84  66  54 N15       30.02S
CLE-LAKEFRONT  SUNNY     81  70  69 NE13      29.99F
CUY CO. ARPT   MOSUNNY   84  68  58 N16       30.02S
LORAIN-ELYRIA  SUNNY     85  63  47 NE9       30.01S
ASHTABULA      SUNNY     84  62  47 VRB7      30.02F
AKRON-CANTON   MOSUNNY   88  59  37 VRB3      30.01F
WOOSTER        SUNNY     86  58  38 NE5       30.01F
MANSFIELD      SUNNY     87  58  37 MISG      30.02F
YOUNGSTOWN     MOSUNNY   87  60  40 CALM      30.01F
$$

OHZ042-051>053-060>062-070>072-077>081-272200-
  SOUTHWEST OHIO

CITY           SKY/WX    TMP DP  RH WIND       PRES   REMARKS
CINC-COVINGTON PTSUNNY   88  72  58 NW6       29.96F HX  94
CINC-LUNKEN    MOSUNNY   85  72  65 NE5       29.95F HX  91
HAMILTON       SUNNY     85  72  65 VRB5      29.97F HX  91
DAYTON         PTSUNNY   82  72  71 NE8       29.99F
WRIGHT-PAT AFB SUNNY     82  74  78 NE9       29.97F
DAYTON GENERAL   N/A    N/A N/A N/A MISG      29.97F
WILMINGTON     MOSUNNY   82  71  69 CALM      29.98F
$$

OHZ036-037-039>041-045>050-054>059-063>069-073>076-082>088-272200-
  CENTRAL AND SOUTHEAST OHIO

CITY           SKY/WX    TMP DP  RH WIND       PRES   REMARKS
COLUMBUS       PTSUNNY   84  70  62 VRB5      29.97F
OSU AIRPORT    MOSUNNY   82  69  64 SE7       29.98F
BOLTON FIELD   MOSUNNY   82  73  74 CALM      29.99S
RICKENBACK AFB MOSUNNY   85  70  61 CALM      29.96F
NEWARK         PTSUNNY   86  67  52 N3        29.98S
MARION         SUNNY     85  58  39 E6        30.00F
LANCASTER      PTSUNNY   83  73  72 NE3       29.98F
ZANESVILLE     MOSUNNY   87  64  46 NE7       29.98F
NEW PHILLY     SUNNY     86  65  49 NE3       30.00S
$$



USA.gov is the U.S. government's official web portal to all federal, state and local government web resources and services.